Change the Weather History Date:

Sunday, May 12, 2013

  Actual Average Record
Temperature  
Mean Temperature 58 °F 66 °F  
Max Temperature 76 °F 78 °F 95 °F (1962)
Min Temperature 40 °F 54 °F 32 °F (1960)
Degree Days  
Heating Degree Days 7 3  
Month to date heating degree days 109 45  
Since 1 July heating degree days 4514 4430  
Cooling Degree Days 0 3  
Month to date cooling degree days 3 28  
Year to date cooling degree days 24 52  
Growing Degree Days 8 (Base 50)    
Moisture  
Dew Point 41 °F    
Average Humidity 60    
Maximum Humidity 89    
Minimum Humidity 31    
Precipitation  
Precipitation 0.00 in 0.10 in 1.80 in (1972)
Month to date precipitation 1.06 1.16  
Year to date precipitation 8.81 7.60  
Snow  
Snow 0.00 in 0.00 in - ()
Month to date snowfall 0.0 0.0  
Since 1 July snowfall 25.0 8.5  
Snow Depth 0.00 in    
Sea Level Pressure  
Sea Level Pressure 30.16 in    
Wind  
Wind Speed 9 mph (SE)    
Max Wind Speed 20 mph    
Max Gust Speed 26 mph    
T = Trace of Precipitation, MM = Missing Value Source: NWS Daily Summary

Daily Weather History Graph

Daily Weather History Graph

Search for Another Location

Airport or City:

Trip Planner

Search our weather history database for the weather conditions in past years. The results will help you decide how hot, cold, wet, or windy it might be!

Date:

Astronomy

May. 12, 2013 Rise Set
Actual Time 6:27 AM CDT 8:33 PM CDT
Civil Twilight 5:58 AM CDT 9:02 PM CDT
Nautical Twilight 5:23 AM CDT 9:38 PM CDT
Astronomical Twilight 4:45 AM CDT 10:16 PM CDT
Moon 8:24 AM CDT (5/12) 11:01 PM CDT (5/12)
Length of Visible Light 15h 03m
Length of Day
14h 05m
Waxing Crescent, 7% of the Moon is Illuminated
May 12
Waxing Crescent
May 17
First Quarter
May 24
Full
May 31
Last Quarter
Jun 8
New

Hourly Weather History & Observations

Time (CDT) Temp. Windchill Dew Point Humidity Pressure Visibility Wind Dir Wind Speed Gust Speed Precip Events Conditions
12:56 AM 46.0 °F - 39.0 °F 76% 30.27 in - Calm Calm - N/A   Unknown
1:56 AM 45.0 °F - 39.9 °F 82% 30.26 in - Calm Calm - N/A   Unknown
2:56 AM 43.0 °F - 39.9 °F 89% 30.25 in - Calm Calm - N/A   Unknown
3:56 AM 42.1 °F 40.2 °F 39.9 °F 92% 30.24 in - NNE 3.5 mph - N/A   Unknown
4:56 AM 41.0 °F 38.0 °F 37.9 °F 89% 30.23 in - North 4.6 mph - N/A   Unknown
5:56 AM 41.0 °F 39.0 °F 37.9 °F 89% 30.24 in - West 3.5 mph - N/A   Unknown
6:56 AM 43.0 °F 40.3 °F 37.0 °F 80% 30.25 in - NE 4.6 mph - N/A   Unknown
7:56 AM 51.1 °F - 39.9 °F 66% 30.25 in - Calm Calm - N/A   Unknown
8:56 AM 54.0 °F - 39.0 °F 57% 30.25 in - SE 6.9 mph - N/A   Unknown
9:56 AM 57.9 °F - 36.0 °F 44% 30.24 in - SE 8.1 mph - N/A   Unknown
10:56 AM 61.0 °F - 36.0 °F 39% 30.22 in - South 10.4 mph 17.3 mph N/A   Unknown
11:56 AM 64.0 °F - 39.9 °F 41% 30.21 in - SE 15.0 mph 23.0 mph N/A   Unknown
12:56 PM 66.9 °F - 39.9 °F 37% 30.17 in - South 13.8 mph 21.9 mph N/A   Unknown
1:56 PM 69.1 °F - 43.0 °F 39% 30.15 in - South 13.8 mph 19.6 mph N/A   Unknown
2:56 PM 73.0 °F - 43.0 °F 34% 30.13 in - South 13.8 mph 20.7 mph N/A   Unknown
3:56 PM 73.9 °F - 44.1 °F 34% 30.10 in - SSE 12.7 mph 21.9 mph N/A   Unknown
4:56 PM 75.9 °F - 42.1 °F 30% 30.05 in - South 15.0 mph 23.0 mph N/A   Unknown
5:56 PM 75.0 °F - 43.0 °F 32% 30.04 in - SSE 16.1 mph 24.2 mph N/A   Unknown
6:56 PM 73.9 °F - 44.1 °F 34% 30.03 in - SSE 13.8 mph 21.9 mph N/A   Unknown
7:56 PM 70.0 °F - 48.0 °F 46% 30.02 in - SE 9.2 mph - N/A   Unknown
8:56 PM 66.0 °F - 46.0 °F 48% 30.03 in - ESE 8.1 mph - N/A   Unknown
9:56 PM 62.1 °F - 46.0 °F 56% 30.04 in - ESE 8.1 mph - N/A   Unknown
10:56 PM 59.0 °F - 46.9 °F 64% 30.06 in - ESE 8.1 mph - N/A   Unknown
11:56 PM 57.0 °F - 46.0 °F 67% 30.05 in - ESE 9.2 mph - N/A   Unknown